Location: Chuathbaluk
(61.5726°N, 159.2454°W)
Time: 01:03:08
(UTC+00:00)

RS-44 - Visible Passes

Search period start: 24 January 2021 00:00
Search period end: 03 February 2021 00:00
Orbit: 1174 x 1511 km, 82.5° (Epoch: 23 January)

Date Brightness Start Highest point End Pass type
(mag) Time Alt. Az. Time Alt. Az. Time Alt. Az.
24 Jan ? 03:59:35 10° NNW 04:06:43 59° W 04:14:13 10° S visible
24 Jan ? 05:53:59 10° NNW 05:58:46 19° WNW 06:03:41 10° WSW visible
24 Jan ? 14:59:38 10° SE 15:05:20 26° ENE 15:11:01 10° NNE visible
24 Jan ? 16:50:35 10° S 16:57:50 82° E 17:05:05 10° NNE visible
25 Jan ? 04:23:29 10° NNW 04:30:17 44° W 04:37:27 10° SSW visible
25 Jan ? 06:18:33 10° NW 06:21:52 14° WNW 06:25:16 10° W visible
25 Jan ? 13:36:43 10° ENE 13:37:30 10° ENE 13:38:17 10° NE visible
25 Jan ? 15:22:18 10° SE 15:28:41 36° E 15:35:04 10° NNE visible
25 Jan ? 17:14:24 10° SSW 17:21:40 76° WNW 17:28:55 10° NNE visible
26 Jan ? 04:47:26 10° NNW 04:53:45 33° W 05:00:23 10° SW visible
26 Jan ? 13:56:50 10° E 14:00:30 15° ENE 14:04:10 10° NNE visible
26 Jan ? 15:45:19 10° SSE 15:52:10 48° E 15:59:01 10° NNE visible
26 Jan ? 17:38:31 10° SW 17:45:37 58° WNW 17:52:45 10° NNE visible
27 Jan ? 03:17:23 10° NNW 03:24:42 74° W 03:32:28 10° S visible
27 Jan ? 05:11:29 10° NNW 05:17:06 24° WNW 05:22:56 10° SW visible
27 Jan ? 14:18:39 10° ESE 14:23:38 21° ENE 14:28:38 10° NNE visible
27 Jan ? 16:08:39 10° S 16:15:46 66° E 16:22:55 10° NNE visible
27 Jan ? 18:02:52 10° SW 18:09:42 44° WNW 18:16:36 10° NNE visible
28 Jan ? 03:41:15 10° NNW 03:48:23 55° W 03:55:56 10° SSW visible
28 Jan ? 05:35:44 10° NNW 05:40:19 18° WNW 05:45:02 10° WSW visible
28 Jan ? 14:41:00 10° SE 14:46:53 28° ENE 14:52:48 10° NNE visible
28 Jan ? 16:32:16 10° S 16:39:30 88° ESE 16:46:48 10° NNE visible
29 Jan ? 04:05:09 10° NNW 04:11:56 41° W 04:19:06 10° SSW visible
29 Jan ? 06:00:26 10° NW 06:03:24 13° WNW 06:06:25 10° W visible
29 Jan ? 13:16:56 10° ENE 13:18:59 11° ENE 13:21:01 10° NE visible
29 Jan ? 15:03:47 10° SSE 15:10:16 39° E 15:16:49 10° NNE visible
29 Jan ? 16:56:10 10° SSW 17:03:21 71° WNW 17:10:39 10° NNE visible
30 Jan ? 04:29:07 10° NNW 04:35:22 31° W 04:41:57 10° SW visible
30 Jan ? 13:37:56 10° E 13:42:00 16° ENE 13:46:06 10° NNE visible
30 Jan ? 15:26:52 10° SSE 15:33:46 53° E 15:40:46 10° NNE visible
30 Jan ? 17:20:20 10° SW 17:27:20 54° WNW 17:34:29 10° NNE visible
31 Jan ? 04:53:12 10° NNW 04:58:41 23° WNW 05:04:24 10° WSW visible
31 Jan ? 13:59:54 10° ESE 14:05:10 23° ENE 14:10:28 10° NNE visible
31 Jan ? 15:50:16 10° S 15:57:24 71° E 16:04:39 10° NNE visible
31 Jan ? 17:44:44 10° SW 17:51:28 41° NW 17:58:21 10° NNE visible
01 Feb ? 03:22:54 10° NNW 03:30:03 52° W 03:37:39 10° SSW visible
01 Feb ? 05:17:30 10° NNW 05:21:52 17° WNW 05:26:23 10° WSW visible
01 Feb ? 14:22:23 10° SE 14:28:26 31° E 14:34:35 10° NNE visible
01 Feb ? 16:13:58 10° SSW 16:21:10 87° WNW 16:28:32 10° NNE visible
02 Feb ? 03:46:49 10° NNW 03:53:35 39° W 04:00:45 10° SSW visible
02 Feb ? 05:42:23 10° NW 05:44:55 12° WNW 05:47:30 10° W visible
02 Feb ? 12:57:40 10° E 13:00:27 13° ENE 13:03:16 10° NE visible
02 Feb ? 14:45:15 10° SSE 14:51:51 42° E 14:58:35 10° NNE visible
02 Feb ? 16:37:56 10° SSW 16:45:03 66° WNW 16:52:23 10° NNE visible
